WMT4902 EPKK-LIPZ

Flight info

Callsign WMT4902
Flight time 1h 22m
Altitude 36000
Route BABKO DCT VADEX DCT KOPAT DCT MAREG DCT NIGSI DCT RADLY/N0451F350 DCT ROSKA/N0381F190 M859 TULIK DCT BASOG
Aircraft A320/M-SDE1E2E3FGIJ1J4RWXY/LB1

Departure

Time 2026-05-05 19:50
Airport Kraków John Paul II International Airport (EPKK)

Arrival

Time 2026-05-05 21:13
Airport Venice Marco Polo Airport (LIPZ)
Time Latitude Longitude Altitude Speed Heading
2026-05-05 19:16 50.07577 19.80098 800 ft 0 kts 347°
2026-05-05 19:45 50.07578 19.80097 800 ft 1 kts 347°
2026-05-05 19:45 50.07590 19.80093 800 ft 3 kts 347°
2026-05-05 19:45 50.07613 19.80090 800 ft 4 kts
2026-05-05 19:46 50.07626 19.80121 800 ft 4 kts 79°
2026-05-05 19:46 50.07636 19.80188 800 ft 9 kts 76°
2026-05-05 19:46 50.07652 19.80297 800 ft 11 kts 77°
2026-05-05 19:46 50.07674 19.80377 800 ft 9 kts 43°
2026-05-05 19:47 50.07734 19.80373 800 ft 10 kts 347°
2026-05-05 19:47 50.07805 19.80350 800 ft 10 kts 348°
2026-05-05 19:47 50.07835 19.80340 800 ft 0 kts 348°
2026-05-05 19:48 50.07849 19.80335 800 ft 5 kts 348°
2026-05-05 19:48 50.07893 19.80320 800 ft 7 kts 348°
2026-05-05 19:49 50.07949 19.80301 800 ft 9 kts 348°
2026-05-05 19:49 50.07996 19.80285 799 ft 11 kts 346°
2026-05-05 19:49 50.08006 19.80148 801 ft 11 kts 259°
2026-05-05 19:49 50.07983 19.79986 801 ft 33 kts 257°
2026-05-05 19:50 50.07882 19.79273 800 ft 98 kts 257°
2026-05-05 19:50 50.07706 19.78009 800 ft 142 kts 258°
2026-05-05 19:50 50.07483 19.76443 1202 ft 148 kts 257°
2026-05-05 19:50 50.07260 19.74869 1735 ft 149 kts 255°
2026-05-05 19:51 50.07036 19.73274 2161 ft 156 kts 252°
2026-05-05 19:51 50.06786 19.71516 2348 ft 176 kts 252°
2026-05-05 19:51 50.06518 19.69623 2579 ft 189 kts 252°
2026-05-05 19:51 50.06214 19.67494 2741 ft 215 kts 253°
2026-05-05 19:52 50.05695 19.65278 3357 ft 219 kts 229°
2026-05-05 19:52 50.04421 19.63994 4022 ft 232 kts 194°
2026-05-05 19:52 50.02750 19.64025 4696 ft 248 kts 174°
2026-05-05 19:52 50.01053 19.64650 5581 ft 252 kts 169°
2026-05-05 19:53 49.99356 19.65423 6414 ft 256 kts 168°
2026-05-05 19:53 49.97625 19.66202 7205 ft 261 kts 169°
2026-05-05 19:53 49.95854 19.66944 7947 ft 266 kts 169°
2026-05-05 19:53 49.94058 19.67639 8708 ft 271 kts 170°
2026-05-05 19:54 49.92208 19.68312 9487 ft 275 kts 170°
2026-05-05 19:54 49.90316 19.68949 10138 ft 282 kts 173°
2026-05-05 19:54 49.88986 19.69116 10299 ft 295 kts 183°
2026-05-05 19:54 49.86888 19.68629 10585 ft 311 kts 198°
2026-05-05 19:55 49.84890 19.67294 11182 ft 315 kts 210°
2026-05-05 19:55 49.82329 19.65066 12086 ft 321 kts 209°
2026-05-05 19:55 49.81001 19.63925 12478 ft 325 kts 209°
2026-05-05 19:55 49.79036 19.62244 13140 ft 328 kts 209°
2026-05-05 19:56 49.77021 19.60521 13728 ft 334 kts 208°
2026-05-05 19:56 49.74976 19.58772 14351 ft 336 kts 208°
2026-05-05 19:56 49.72920 19.57007 14972 ft 337 kts 208°
2026-05-05 19:56 49.70883 19.55260 15531 ft 340 kts 208°
2026-05-05 19:57 49.68795 19.53472 16061 ft 344 kts 208°
2026-05-05 19:57 49.66676 19.51662 16585 ft 349 kts 208°
2026-05-05 19:57 49.64533 19.49828 17144 ft 353 kts 208°
2026-05-05 19:57 49.62378 19.47958 17692 ft 357 kts 211°
2026-05-05 19:58 49.60394 19.45634 18251 ft 361 kts 222°
2026-05-05 19:58 49.58638 19.42822 18702 ft 365 kts 226°
2026-05-05 19:58 49.56907 19.39982 19163 ft 369 kts 226°
2026-05-05 19:58 49.55145 19.37095 19732 ft 371 kts 226°
2026-05-05 19:59 49.53374 19.34201 20309 ft 371 kts 226°
2026-05-05 19:59 49.51590 19.31294 20814 ft 373 kts 226°
2026-05-05 19:59 49.49814 19.28409 21240 ft 378 kts 226°
2026-05-05 19:59 49.48003 19.25471 21761 ft 379 kts 227°
2026-05-05 20:00 49.46187 19.22522 22353 ft 378 kts 227°
2026-05-05 20:00 49.44368 19.19567 22790 ft 381 kts 227°
2026-05-05 20:00 49.42536 19.16595 23237 ft 385 kts 227°
2026-05-05 20:00 49.40684 19.13598 23659 ft 387 kts 227°
2026-05-05 20:01 49.38827 19.10603 23808 ft 385 kts 227°
2026-05-05 20:01 49.36994 19.07642 23851 ft 387 kts 228°
2026-05-05 20:01 49.35128 19.04628 23855 ft 390 kts 227°
2026-05-05 20:01 49.33264 19.01621 23848 ft 389 kts 227°
2026-05-05 20:02 49.31399 18.98618 23846 ft 389 kts 227°
2026-05-05 20:02 49.29526 18.95602 23849 ft 390 kts 227°
2026-05-05 20:02 49.27649 18.92592 23852 ft 392 kts 227°
2026-05-05 20:02 49.25767 18.89581 23852 ft 391 kts 227°
2026-05-05 20:03 49.23917 18.86621 23851 ft 389 kts 227°
2026-05-05 20:03 49.22043 18.83625 23857 ft 390 kts 227°
2026-05-05 20:03 49.20161 18.80620 23858 ft 391 kts 227°
2026-05-05 20:03 49.18281 18.77620 23856 ft 390 kts 227°
2026-05-05 20:04 49.16400 18.74619 23854 ft 389 kts 226°
2026-05-05 20:04 49.14549 18.71672 23862 ft 390 kts 226°
2026-05-05 20:04 49.12662 18.68676 23855 ft 391 kts 227°
2026-05-05 20:04 49.10789 18.65683 23853 ft 389 kts 229°
2026-05-05 20:05 49.09072 18.62483 23851 ft 389 kts 232°
2026-05-05 20:05 49.07374 18.59255 23856 ft 389 kts 232°
2026-05-05 20:05 49.05671 18.56027 23856 ft 389 kts 231°
2026-05-05 20:05 49.03988 18.52846 23856 ft 388 kts 232°
2026-05-05 20:06 49.02287 18.49634 23856 ft 389 kts 231°
2026-05-05 20:06 49.00586 18.46424 23860 ft 389 kts 231°
2026-05-05 20:06 48.98883 18.43215 23860 ft 389 kts 231°
2026-05-05 20:06 48.97175 18.40002 23846 ft 388 kts 231°
2026-05-05 20:07 48.95474 18.36799 23849 ft 389 kts 231°
2026-05-05 20:07 48.93793 18.33635 23841 ft 389 kts 231°
2026-05-05 20:07 48.92092 18.30441 23846 ft 388 kts 231°
2026-05-05 20:07 48.90390 18.27251 23855 ft 388 kts 231°
2026-05-05 20:08 48.88682 18.24055 24244 ft 390 kts 231°
2026-05-05 20:08 48.86961 18.20838 24628 ft 393 kts 231°
2026-05-05 20:08 48.85249 18.17642 25065 ft 394 kts 231°
2026-05-05 20:08 48.83516 18.14409 25524 ft 394 kts 231°
2026-05-05 20:09 48.81768 18.11157 25858 ft 398 kts 231°
2026-05-05 20:09 48.80007 18.07885 26176 ft 402 kts 231°
2026-05-05 20:09 48.78262 18.04642 26551 ft 403 kts 231°
2026-05-05 20:09 48.76489 18.01347 26983 ft 404 kts 231°
2026-05-05 20:10 48.74698 17.98028 27266 ft 408 kts 231°
2026-05-05 20:10 48.72891 17.94689 27605 ft 411 kts 231°
2026-05-05 20:10 48.71067 17.91323 27992 ft 412 kts 231°
2026-05-05 20:10 48.69243 17.87963 28355 ft 415 kts 231°
2026-05-05 20:11 48.67401 17.84567 28672 ft 418 kts 231°
2026-05-05 20:11 48.65571 17.81196 28992 ft 420 kts 231°
2026-05-05 20:11 48.63712 17.77774 29395 ft 421 kts 231°
2026-05-05 20:11 48.61841 17.74334 29701 ft 424 kts 231°
2026-05-05 20:12 48.59963 17.70885 30007 ft 426 kts 231°
2026-05-05 20:12 48.58092 17.67453 30318 ft 427 kts 231°
2026-05-05 20:12 48.56197 17.63981 30724 ft 426 kts 231°
2026-05-05 20:12 48.54301 17.60518 31130 ft 426 kts 231°
2026-05-05 20:13 48.52434 17.57118 31561 ft 424 kts 230°
2026-05-05 20:13 48.50551 17.53689 32007 ft 423 kts 230°
2026-05-05 20:13 48.48677 17.50275 32433 ft 422 kts 230°
2026-05-05 20:13 48.46802 17.46870 32853 ft 421 kts 230°
2026-05-05 20:14 48.44932 17.43480 33330 ft 419 kts 230°
2026-05-05 20:14 48.43092 17.40146 33747 ft 418 kts 230°
2026-05-05 20:14 48.41233 17.36778 34076 ft 418 kts 230°
2026-05-05 20:14 48.39376 17.33410 34465 ft 416 kts 231°
2026-05-05 20:15 48.37534 17.30072 34733 ft 410 kts 231°
2026-05-05 20:15 48.33907 17.23530 34798 ft 404 kts 230°
2026-05-05 20:16 48.30327 17.17097 34799 ft 400 kts 231°
2026-05-05 20:16 48.26747 17.10676 34801 ft 403 kts 231°
2026-05-05 20:17 48.23179 17.04292 34810 ft 399 kts 231°
2026-05-05 20:17 48.19596 16.97959 34804 ft 395 kts 227°
2026-05-05 20:18 48.15419 16.92714 34799 ft 392 kts 219°
2026-05-05 20:18 48.11116 16.87740 34800 ft 388 kts 219°
2026-05-05 20:19 48.06861 16.82823 34787 ft 385 kts 219°
2026-05-05 20:19 48.02666 16.77995 34785 ft 381 kts 219°
2026-05-05 20:20 47.98473 16.73183 34785 ft 377 kts 219°
2026-05-05 20:20 47.94350 16.68460 34791 ft 374 kts 219°
2026-05-05 20:21 47.90228 16.63743 34792 ft 371 kts 219°
2026-05-05 20:21 47.86156 16.59097 34787 ft 368 kts 220°
2026-05-05 20:22 47.82099 16.54477 34796 ft 365 kts 219°
2026-05-05 20:22 47.78095 16.49920 34797 ft 362 kts 219°
2026-05-05 20:23 47.74094 16.45379 34792 ft 360 kts 219°
2026-05-05 20:23 47.70120 16.40877 34800 ft 357 kts 219°
2026-05-05 20:24 47.66195 16.36443 34801 ft 355 kts 220°
2026-05-05 20:24 47.62272 16.32011 34816 ft 353 kts 219°
2026-05-05 20:25 47.58393 16.27642 34815 ft 351 kts 219°
2026-05-05 20:25 47.54506 16.23269 34827 ft 349 kts 220°
2026-05-05 20:26 47.50662 16.18959 34826 ft 347 kts 219°
2026-05-05 20:26 47.46813 16.14665 34840 ft 345 kts 219°
2026-05-05 20:27 47.42991 16.10400 34842 ft 343 kts 220°
2026-05-05 20:27 47.39216 16.06189 34855 ft 341 kts 220°
2026-05-05 20:28 47.35432 16.01954 34853 ft 340 kts 220°
2026-05-05 20:28 47.31757 15.97673 34864 ft 338 kts 221°
2026-05-05 20:29 47.28080 15.93368 34863 ft 336 kts 221°
2026-05-05 20:29 47.24413 15.89097 34883 ft 335 kts 220°
2026-05-05 20:30 47.20779 15.84886 34879 ft 334 kts 220°
2026-05-05 20:30 47.17132 15.80676 34887 ft 332 kts 220°
2026-05-05 20:31 47.13490 15.76473 34886 ft 331 kts 220°
2026-05-05 20:31 47.09886 15.72328 34891 ft 330 kts 220°
2026-05-05 20:32 47.06274 15.68184 34891 ft 329 kts 220°
2026-05-05 20:32 47.02688 15.64080 34899 ft 329 kts 220°
2026-05-05 20:33 46.99079 15.59938 34890 ft 329 kts 220°
2026-05-05 20:33 46.95476 15.55813 34892 ft 327 kts 220°
2026-05-05 20:34 46.91854 15.51679 34897 ft 338 kts 220°
2026-05-05 20:34 46.88051 15.47344 34894 ft 353 kts 221°
2026-05-05 20:34 46.86340 15.44745 34895 ft 358 kts 234°
2026-05-05 20:35 46.84854 15.41761 34893 ft 366 kts 235°
2026-05-05 20:35 46.81831 15.35620 34897 ft 382 kts 235°
2026-05-05 20:36 46.78665 15.29187 34902 ft 397 kts 235°
2026-05-05 20:36 46.75357 15.22515 34916 ft 411 kts 235°
2026-05-05 20:37 46.72007 15.15777 34915 ft 411 kts 235°
2026-05-05 20:37 46.68647 15.09024 34931 ft 410 kts 235°
2026-05-05 20:38 46.65306 15.02332 34939 ft 410 kts 235°
2026-05-05 20:38 46.61949 14.95619 34949 ft 410 kts 235°
2026-05-05 20:39 46.58610 14.88973 34961 ft 409 kts 235°
2026-05-05 20:39 46.55248 14.82287 34965 ft 406 kts 235°
2026-05-05 20:40 46.51938 14.75723 34930 ft 400 kts 235°
2026-05-05 20:40 46.48659 14.69235 34930 ft 396 kts 235°
2026-05-05 20:41 46.45415 14.62834 34966 ft 400 kts 235°
2026-05-05 20:41 46.42114 14.56330 34970 ft 396 kts 236°
2026-05-05 20:42 46.38859 14.49935 34999 ft 395 kts 236°
2026-05-05 20:42 46.35591 14.43514 34999 ft 395 kts 236°
2026-05-05 20:43 46.32342 14.37151 34942 ft 395 kts 236°
2026-05-05 20:43 46.30714 14.33977 34690 ft 391 kts 236°
2026-05-05 20:43 46.29092 14.30816 34444 ft 388 kts 236°
2026-05-05 20:43 46.27491 14.27697 34206 ft 385 kts 236°
2026-05-05 20:44 46.25896 14.24593 33953 ft 381 kts 237°
2026-05-05 20:44 46.24338 14.21570 33684 ft 379 kts 236°
2026-05-05 20:44 46.22765 14.18518 33410 ft 378 kts 236°
2026-05-05 20:44 46.21199 14.15475 33137 ft 376 kts 236°
2026-05-05 20:45 46.18080 14.09405 32608 ft 374 kts 236°
2026-05-05 20:45 46.16553 14.06450 32299 ft 368 kts 236°
2026-05-05 20:45 46.15026 14.03500 31890 ft 365 kts 235°
2026-05-05 20:46 46.13508 14.00577 31484 ft 362 kts 235°
2026-05-05 20:46 46.12509 13.98657 31217 ft 360 kts 234°
2026-05-05 20:46 46.11009 13.95774 30818 ft 358 kts 235°
2026-05-05 20:46 46.09041 13.91990 30312 ft 354 kts 235°
2026-05-05 20:47 46.07565 13.89148 29897 ft 352 kts 235°
2026-05-05 20:47 46.06597 13.87285 29630 ft 350 kts 235°
2026-05-05 20:47 46.05141 13.84491 29260 ft 347 kts 235°
2026-05-05 20:47 46.03695 13.81722 28873 ft 343 kts 235°
2026-05-05 20:48 46.02277 13.79003 28523 ft 337 kts 235°
2026-05-05 20:48 46.00869 13.76309 28174 ft 334 kts 235°
2026-05-05 20:48 45.99477 13.73645 27825 ft 331 kts 235°
2026-05-05 20:48 45.98097 13.71012 27490 ft 327 kts 235°
2026-05-05 20:49 45.96733 13.68414 27146 ft 324 kts 235°
2026-05-05 20:49 45.95394 13.65865 26823 ft 322 kts 235°
2026-05-05 20:49 45.94042 13.63299 26489 ft 321 kts 235°
2026-05-05 20:49 45.92701 13.60747 26161 ft 319 kts 235°
2026-05-05 20:50 45.91366 13.58200 25827 ft 318 kts 235°
2026-05-05 20:50 45.90038 13.55671 25478 ft 316 kts 235°
2026-05-05 20:50 45.88714 13.53161 25138 ft 315 kts 234°
2026-05-05 20:50 45.87413 13.50689 24812 ft 313 kts 234°
2026-05-05 20:51 45.86098 13.48191 24445 ft 312 kts 234°
2026-05-05 20:51 45.84792 13.45718 24096 ft 310 kts 234°
2026-05-05 20:51 45.83492 13.43261 23740 ft 308 kts 234°
2026-05-05 20:51 45.82195 13.40815 23349 ft 307 kts 234°
2026-05-05 20:52 45.80920 13.38411 22983 ft 304 kts 234°
2026-05-05 20:52 45.79645 13.36006 22619 ft 301 kts 234°
2026-05-05 20:52 45.78378 13.33620 22259 ft 299 kts 234°
2026-05-05 20:52 45.77121 13.31255 21907 ft 296 kts 234°
2026-05-05 20:53 45.75873 13.28908 21563 ft 294 kts 234°
2026-05-05 20:53 45.74634 13.26581 21209 ft 293 kts 234°
2026-05-05 20:53 45.73415 13.24291 20869 ft 291 kts 234°
2026-05-05 20:53 45.72191 13.21987 20519 ft 290 kts 234°
2026-05-05 20:54 45.70972 13.19694 20164 ft 288 kts 234°
2026-05-05 20:54 45.69770 13.17439 19834 ft 287 kts 234°
2026-05-05 20:54 45.68559 13.15169 19487 ft 286 kts 234°
2026-05-05 20:54 45.67349 13.12904 19134 ft 286 kts 234°
2026-05-05 20:55 45.66140 13.10641 18795 ft 285 kts 234°
2026-05-05 20:55 45.64951 13.08419 18452 ft 285 kts 234°
2026-05-05 20:55 45.63744 13.06173 18080 ft 284 kts 233°
2026-05-05 20:55 45.62544 13.03940 17722 ft 282 kts 233°
2026-05-05 20:56 45.61346 13.01712 17368 ft 281 kts 233°
2026-05-05 20:56 45.60157 12.99505 17026 ft 279 kts 233°
2026-05-05 20:56 45.58988 12.97334 16708 ft 278 kts 233°
2026-05-05 20:56 45.57812 12.95147 16364 ft 277 kts 233°
2026-05-05 20:57 45.56643 12.92971 16023 ft 276 kts 233°
2026-05-05 20:57 45.55476 12.90802 15692 ft 275 kts 233°
2026-05-05 20:57 45.54311 12.88641 15353 ft 274 kts 233°
2026-05-05 20:57 45.53149 12.86487 15021 ft 274 kts 232°
2026-05-05 20:58 45.51987 12.84341 14683 ft 273 kts 232°
2026-05-05 20:58 45.50825 12.82191 14351 ft 273 kts 232°
2026-05-05 20:58 45.49681 12.80077 14024 ft 273 kts 232°
2026-05-05 20:58 45.48520 12.77932 13674 ft 273 kts 232°
2026-05-05 20:59 45.47362 12.75793 13363 ft 270 kts 232°
2026-05-05 20:59 45.46225 12.73692 13315 ft 271 kts 232°
2026-05-05 20:59 45.45033 12.71488 13096 ft 284 kts 232°
2026-05-05 20:59 45.43817 12.69240 13031 ft 287 kts 232°
2026-05-05 21:00 45.42591 12.66980 12953 ft 288 kts 232°
2026-05-05 21:00 45.41380 12.64751 12873 ft 288 kts 232°
2026-05-05 21:00 45.40152 12.62498 12795 ft 287 kts 232°
2026-05-05 21:00 45.38924 12.60255 12711 ft 287 kts 232°
2026-05-05 21:01 45.37711 12.58040 12641 ft 287 kts 232°
2026-05-05 21:01 45.36487 12.55799 12561 ft 286 kts 232°
2026-05-05 21:01 45.35265 12.53561 12322 ft 285 kts 232°
2026-05-05 21:01 45.34043 12.51341 12078 ft 284 kts 230°
2026-05-05 21:02 45.32595 12.49437 11993 ft 284 kts 217°
2026-05-05 21:02 45.30897 12.47963 12001 ft 286 kts 212°
2026-05-05 21:02 45.29180 12.46530 11996 ft 286 kts 212°
2026-05-05 21:02 45.27480 12.45109 11996 ft 287 kts 212°
2026-05-05 21:03 45.25755 12.43670 11998 ft 287 kts 212°
2026-05-05 21:03 45.24026 12.42227 11888 ft 288 kts 212°
2026-05-05 21:03 45.22287 12.40777 11556 ft 285 kts 212°
2026-05-05 21:03 45.20598 12.39372 11219 ft 278 kts 212°
2026-05-05 21:04 45.18941 12.37991 10741 ft 280 kts 212°
2026-05-05 21:04 45.17267 12.36595 10414 ft 278 kts 212°
2026-05-05 21:04 45.15610 12.35215 10000 ft 274 kts 212°
2026-05-05 21:04 45.14058 12.33667 9375 ft 271 kts 227°
2026-05-05 21:05 45.13048 12.31459 8804 ft 267 kts 249°
2026-05-05 21:05 45.12745 12.28909 8379 ft 261 kts 271°
2026-05-05 21:05 45.13161 12.26434 7991 ft 258 kts 293°
2026-05-05 21:05 45.14189 12.24418 7592 ft 257 kts 315°
2026-05-05 21:06 45.15699 12.23079 7199 ft 256 kts 334°
2026-05-05 21:06 45.17340 12.22110 6837 ft 254 kts 334°
2026-05-05 21:06 45.18976 12.21146 6451 ft 256 kts 334°
2026-05-05 21:06 45.20633 12.20164 6042 ft 260 kts 334°
2026-05-05 21:07 45.22315 12.19162 5649 ft 263 kts 334°
2026-05-05 21:07 45.24016 12.18151 5248 ft 266 kts 335°
2026-05-05 21:07 45.25734 12.17133 4878 ft 268 kts 335°
2026-05-05 21:07 45.27417 12.16138 4787 ft 257 kts 335°
2026-05-05 21:08 45.29051 12.15174 4667 ft 249 kts 335°
2026-05-05 21:08 45.30627 12.14266 4471 ft 244 kts 340°
2026-05-05 21:08 45.32295 12.13939 4241 ft 242 kts
2026-05-05 21:08 45.33903 12.14437 3998 ft 240 kts 22°
2026-05-05 21:09 45.35310 12.15712 3710 ft 240 kts 41°
2026-05-05 21:09 45.36548 12.17295 3410 ft 239 kts 42°
2026-05-05 21:09 45.37778 12.18871 3083 ft 235 kts 42°
2026-05-05 21:09 45.38974 12.20399 2778 ft 226 kts 43°
2026-05-05 21:10 45.40120 12.21864 2485 ft 217 kts 43°
2026-05-05 21:10 45.41226 12.23278 2190 ft 210 kts 44°
2026-05-05 21:10 45.42289 12.24637 1934 ft 200 kts 44°
2026-05-05 21:10 45.43306 12.25938 1667 ft 193 kts 43°
2026-05-05 21:11 45.44269 12.27171 1420 ft 177 kts 44°
2026-05-05 21:11 45.45115 12.28254 1174 ft 155 kts 45°
2026-05-05 21:11 45.45891 12.29262 936 ft 143 kts 42°
2026-05-05 21:11 45.46619 12.30193 831 ft 138 kts 43°
2026-05-05 21:12 45.47320 12.31108 666 ft 138 kts 42°
2026-05-05 21:12 45.48033 12.31998 455 ft 136 kts 39°
2026-05-05 21:12 45.48727 12.32898 248 ft 134 kts 41°
2026-05-05 21:12 45.49418 12.33780 65 ft 133 kts 40°
2026-05-05 21:13 45.50056 12.34594 14 ft 106 kts 42°
2026-05-05 21:13 45.50476 12.35139 15 ft 57 kts 42°
2026-05-05 21:13 45.50671 12.35357 17 ft 24 kts 26°
2026-05-05 21:13 45.50815 12.35430 16 ft 17 kts 10°
2026-05-05 21:14 45.50939 12.35466 17 ft 19 kts
2026-05-05 21:14 45.50980 12.35381 18 ft 11 kts 266°
2026-05-05 21:14 45.50963 12.35242 18 ft 18 kts 253°
2026-05-05 21:14 45.50885 12.35112 16 ft 17 kts 222°
2026-05-05 21:15 45.50789 12.34989 16 ft 20 kts 222°
2026-05-05 21:15 45.50696 12.34871 16 ft 22 kts 221°
2026-05-05 21:15 45.50576 12.34716 16 ft 25 kts 221°
2026-05-05 21:15 45.50441 12.34545 17 ft 27 kts 222°
2026-05-05 21:16 45.50316 12.34382 18 ft 20 kts 222°
2026-05-05 21:16 45.50222 12.34258 16 ft 14 kts 221°
2026-05-05 21:16 45.50148 12.34167 16 ft 11 kts 223°
2026-05-05 21:16 45.50164 12.34093 16 ft 9 kts 312°
2026-05-05 21:17 45.50181 12.34065 16 ft 0 kts 312°